Location: Unspecified
(35.6961°N, 0.0000°E)
Time: 02:14:17
(UTC+00:00)

S-56A Canister/Altair - Pass Details

Date: 06 October 2020
Orbit: 632 x 2500 km, 38.9° (Epoch: 20 October)

Event Time Altitude Azimuth Distance (km) Brightness Sun altitude
Rises 19:12:28 0° 291° (WNW) 6,091 13.6 -20.3°
Reaches altitude 10° 19:17:14 10° 283° (WNW) 4,933 12.8 -21.3°
Maximum altitude 19:28:27 32° 228° (SW) 2,929 10.7 -23.6°
Drops below altitude 10° 19:36:58 10° 169° (S) 3,693 10.8 -25.2°
Enters shadow 19:38:11 - 164° (SSE) 3,964 10.9 -25.5°
